Location: Wallasey
(53.4265°N, 3.0662°W)
Time: 02:13:15
(UTC+01:00)

OTV 5 (USA 277) - Visible Passes

Search period start: 17 June 2019 00:00
Search period end: 27 June 2019 00:00
Orbit: 310 x 325 km, 54.5° (Epoch: 08 May)

Date Brightness Start Highest point End Pass type
(mag) Time Alt. Az. Time Alt. Az. Time Alt. Az.
17 Jun ? 00:54:57 19° SE 00:54:57 19° SE 00:56:35 10° E visible
17 Jun ? 02:25:47 11° WSW 02:28:27 81° SSE 02:31:13 10° ENE visible
18 Jun ? 01:08:19 31° S 01:08:58 37° SSE 01:11:35 10° E visible
18 Jun ? 02:40:26 10° W 02:43:13 74° N 02:45:59 10° ENE visible
18 Jun ? 23:50:36 13° ESE 23:50:36 13° ESE 23:51:26 10° ESE visible
19 Jun ? 01:21:24 14° WSW 01:23:38 65° SSE 01:26:24 10° ENE visible
19 Jun ? 02:55:15 10° W 02:58:01 66° N 03:00:46 10° E visible
20 Jun ? 00:03:08 21° S 00:04:13 28° SSE 00:06:40 10° E visible
20 Jun ? 01:35:36 10° WSW 01:38:22 85° NNW 01:41:09 10° ENE visible
20 Jun ? 03:10:03 10° WNW 03:12:49 72° N 03:15:34 10° E visible
20 Jun ? 22:44:12 10° SSE 22:45:03 11° SE 22:45:53 10° ESE visible
21 Jun ? 00:16:08 10° SW 00:18:50 49° SSE 00:21:33 10° ENE visible
21 Jun ? 01:50:23 10° W 01:53:09 68° N 01:55:55 10° E visible
21 Jun ? 03:24:48 10° WNW 03:27:35 86° S 03:30:21 10° ESE visible
21 Jun ? 22:57:20 10° SSW 22:59:30 21° SE 23:01:41 10° E visible
22 Jun ? 00:30:46 10° WSW 00:33:33 81° SSE 00:36:19 10° ENE visible
22 Jun ? 02:05:12 10° W 02:07:58 67° N 02:10:43 10° E visible
22 Jun ? 03:39:34 10° WNW 03:42:18 54° SSW 03:45:00 10° SE visible
22 Jun ? 23:11:28 10° SW 23:14:04 37° SSE 23:16:41 10° E visible
23 Jun ? 00:45:32 10° W 00:48:19 74° N 00:51:05 10° ENE visible
23 Jun ? 02:19:58 10° WNW 02:22:45 81° N 02:25:31 10° E visible
23 Jun ? 23:25:58 10° WSW 23:28:44 65° SSE 23:31:30 10° ENE visible
24 Jun ? 01:00:20 10° W 01:03:06 66° N 01:05:52 10° E visible
24 Jun ? 02:34:43 10° WNW 02:37:30 70° SSW 02:40:15 10° ESE visible
24 Jun ? 23:40:41 10° WSW 23:43:29 84° N 23:46:15 10° ENE visible
25 Jun ? 01:15:08 10° WNW 01:17:54 72° N 01:20:41 10° E visible
25 Jun ? 02:49:32 10° W 02:52:10 40° SSW 02:54:48 10° SE visible
25 Jun ? 23:55:29 10° W 23:58:15 68° N 00:01:01 10° E visible
26 Jun ? 01:29:54 10° WNW 01:32:41 86° SSW 01:35:27 10° ESE visible
26 Jun ? 03:04:29 10° W 03:06:45 22° SW 03:09:00 10° SSE visible
26 Jun ? 22:35:52 10° WSW 22:38:39 82° SSE 22:41:25 10° ENE visible
